Weather in Antonovka

Russia / Oryol Oblast     52°29′57″N   35°48′13″E
temp.,
°C
wind,
m/s
gust,
m/s
humid.,
%
clouds,
%
prec.,
mm/h
press.,
hPa
HPBL,
m
24 september, fri
fri2400:00+6wsw3591100 0.0 1011311
03:00+6ssw3791100 0.0 1009339
06:00+6s5994100 0.0 1007557
09:00+7s71287100 0.0 1006832
12:00+10s91377100 0.1 10041313
15:00+8s91489100 1.8 1002995
18:00+8s81394100 2.3 1002792
21:00+8s61195100 3.5 1002721
25 september, sat
sat2500:00+8sse5896100 0.1 1003469
03:00+8s3597100 0.3 1004324
06:00+8ssw119295 0.1 100536
09:00+9s239399 0.1 1007224
12:00+12wsw347571 0.1 1008921
15:00+12wsw3570100 0.3 10091014
18:00+10wsw3677100 0.1 1010163
21:00+9wsw4788100 0.1 1011272
26 september, sun
sun2600:00+9sw5995100 0.8 1010482
03:00+9sw51097100 1.3 1009445
06:00+11wnw51092100 1.0 1008677
09:00+10wnw71388100 1.1 1009609
12:00+11nw10127291 0.1 10111310
15:00+10nnw81374100 0.3 10131376
18:00+9nw7138044 0.0 1014921
21:00+9nw8137987 0.1 1015892
27 september, mon
mon2700:00+9nnw7128598 0.0 1016790
03:00+8nnw5119067 0.1 1018530
06:00+8n598739 0.0 1020573
09:00+9n6884100 0.0 1021607
12:00+11nne5675100 0.0 1022811
15:00+12nne567293 0.2 1023900
18:00+10n3780100 0.1 1023143
21:00+8nne358995 0.1 1025110
28 september, tue
tue2800:00+6nne35935 0.0 1025109
03:00+5n349452 0.0 102681
06:00+7nne3793100 0.0 1027291
09:00+9ne468695 0.0 1028461
12:00+10ne4577100 0.0 1029830
15:00+11ne446999 0.2 1029985
18:00+9nne3681100 0.3 1029222
21:00+9ne3788100 0.3 1030292